{"data":{"norad_id":60329,"epoch":"2026-09-21T09:06:08.103744Z","epoch_age_seconds":109631,"freshness":"FRESH","line1":"1 60329U 24136A   26264.37926046  .00000405  00000+0  24828-4 0  9999","line2":"2 60329  53.1582 245.4278 0001201  83.9815 276.1323 15.31704839120857","mean_motion":15.31704839,"eccentricity":0.0001201,"inclination_deg":53.1582,"raan_deg":245.4278,"arg_perigee_deg":83.9815,"mean_anomaly_deg":276.1323,"bstar":2.4828e-5,"rev_number":12085,"period_min":94.012890952289,"perigee_km":469.90302206171,"apogee_km":471.54811885114,"semimajor_km":6848.8625704564,"source":"CELESTRAK","updated_at":"2026-09-22T09:00:49.218695Z"}}